TimeADT,TemperatureF,Dew PointF,Humidity,Sea Level PressureIn,VisibilityMPH,Wind Direction,Wind SpeedMPH,Gust SpeedMPH,PrecipitationIn,Events,Conditions,WindDirDegrees,DateUTC
12:00 AM,53.6,50.0,88,30.18,15.0,WSW,9.2,-,N/A,,Overcast,240,2013-10-15 03:00:00
12:46 AM,53.6,50.0,88,30.19,15.0,WSW,9.2,-,N/A,Rain,Light Rain Showers,240,2013-10-15 03:46:00
1:00 AM,51.8,50.0,94,30.18,15.0,WSW,6.9,-,N/A,Rain,Light Rain Showers,240,2013-10-15 04:00:00
2:00 AM,51.8,50.0,94,30.17,15.0,WSW,11.5,-,N/A,Rain,Light Rain Showers,240,2013-10-15 05:00:00
3:00 AM,51,50,94,30.16,15,WSW,9.2,,,Rain,Light Rain Showers,250,2013-10-15 06:00:00
3:00 AM,51.8,50.0,94,30.16,15.0,WSW,9.2,-,N/A,,Overcast,250,2013-10-15 06:00:00
4:00 AM,51.8,50.0,94,30.15,15.0,West,10.4,-,N/A,,Overcast,260,2013-10-15 07:00:00
5:00 AM,51.8,50.0,94,30.16,15.0,WSW,9.2,-,N/A,,Overcast,250,2013-10-15 08:00:00
6:00 AM,51.8,50.0,94,30.16,15.0,West,6.9,-,N/A,,Overcast,270,2013-10-15 09:00:00
6:21 AM,51.8,50.0,94,30.17,15.0,WNW,6.9,-,N/A,,Overcast,290,2013-10-15 09:21:00
7:00 AM,51.8,50.0,94,30.18,15.0,WNW,8.1,-,N/A,,Mostly Cloudy,290,2013-10-15 10:00:00
8:00 AM,51.8,50.0,94,30.18,15.0,WNW,6.9,-,N/A,,Mostly Cloudy,300,2013-10-15 11:00:00
9:00 AM,52,50,92,30.21,15,WNW,6.9,,,,Mostly Cloudy,300,2013-10-15 12:00:00
9:00 AM,51.8,50.0,94,30.20,15.0,NW,6.9,-,N/A,,Mostly Cloudy,310,2013-10-15 12:00:00
10:00 AM,53.6,50.0,88,30.21,15.0,NNW,10.4,-,N/A,,Mostly Cloudy,330,2013-10-15 13:00:00
10:12 AM,55.4,50.0,82,30.21,15.0,NW,12.7,-,N/A,,Mostly Cloudy,320,2013-10-15 13:12:00
11:00 AM,55.4,48.2,77,30.22,15.0,NNW,10.4,-,N/A,,Mostly Cloudy,340,2013-10-15 14:00:00
12:00 PM,57.2,48.2,72,30.22,15.0,NNW,9.2,18.4,N/A,,Mostly Cloudy,340,2013-10-15 15:00:00
1:00 PM,55.4,44.6,67,30.22,15.0,NW,11.5,17.3,N/A,,Mostly Cloudy,310,2013-10-15 16:00:00
2:00 PM,55.4,41.0,58,30.23,15.0,NNW,15.0,-,N/A,,Mostly Cloudy,330,2013-10-15 17:00:00
3:00 PM,54,40,47,30.24,15,NNW,12.7,,,,Scattered Clouds,330,2013-10-15 18:00:00
3:00 PM,53.6,39.2,58,30.24,15.0,NNW,11.5,21.9,N/A,,Mostly Cloudy,330,2013-10-15 18:00:00
4:00 PM,53.6,39.2,58,30.25,15.0,NNW,10.4,-,N/A,,Overcast,340,2013-10-15 19:00:00
5:00 PM,50.0,37.4,62,30.27,15.0,NNW,9.2,-,N/A,,Overcast,330,2013-10-15 20:00:00
6:00 PM,48.2,37.4,66,30.27,15.0,NNW,4.6,-,N/A,,Overcast,340,2013-10-15 21:00:00
7:00 PM,44.6,37.4,76,30.26,15.0,North,5.8,-,N/A,,Overcast,360,2013-10-15 22:00:00
8:00 PM,39.2,37.4,93,30.28,15.0,Calm,Calm,-,N/A,,Mostly Cloudy,0,2013-10-15 23:00:00
9:00 PM,40,36,82,30.30,15,WSW,2.3,,,,Clear,250,2013-10-16 00:00:00
9:00 PM,41.0,35.6,81,30.29,15.0,Variable,2.3,-,N/A,,Scattered Clouds,0,2013-10-16 00:00:00
9:34 PM,35.6,33.8,93,30.31,15.0,WNW,2.3,-,N/A,,Scattered Clouds,290,2013-10-16 00:34:00
10:00 PM,35.6,33.8,93,30.31,15.0,WNW,3.5,-,N/A,,Scattered Clouds,300,2013-10-16 01:00:00
11:00 PM,35.6,33.8,93,30.32,15.0,WNW,3.5,-,N/A,,Scattered Clouds,300,2013-10-16 02:00:00